Location: Katherine
(14.4670°S, 132.2670°E)
Time: 21:41:59
(UTC+09:30)

ISS - Visible Passes

Search period start: 03 December 2022 00:00
Search period end: 13 December 2022 00:00
Orbit: 414 x 420 km, 51.6° (Epoch: 03 December)

Date Brightness Start Highest point End Pass type
(mag) Time Alt. Az. Time Alt. Az. Time Alt. Az.
10 Dec -2.5 19:40:58 10° N 19:43:33 21° NE 19:46:09 10° ESE visible
10 Dec -0.6 21:18:13 10° W 21:20:11 15° SW 21:22:09 10° SSW visible
11 Dec -0.1 05:35:13 10° SSE 05:36:30 12° SE 05:37:45 10° ESE visible
11 Dec -1.7 20:28:52 10° WNW 20:31:51 30° SW 20:34:52 10° SSE visible
12 Dec -3.5 19:40:16 10° NW 19:43:35 73° SW 19:46:56 10° SSE visible
